• In Hungary
  • List of Countries
  • For 7 days
  • Water Temperature
  • Satellite Maps
  • Weather Map
  • News
  • Weather Widgets
  • user-avatar
    Login

    Hourly Weather Bismarck

    Today, 22 October, Sunday

    Time Temperature Precipitation Wind Pressure Humidity
    00:00 +7°C° 0 mm 4 mps 713 mmHg 41%
    01:00 +7°C° 0 mm 4 mps 713 mmHg 42%
    02:00 +6°C° 0 mm 4 mps 713 mmHg 43%
    03:00 +6°C° 0 mm 4 mps 713 mmHg 43%
    04:00 +5°C° 0 mm 4 mps 713 mmHg 43%
    05:00 +5°C° 0 mm 3 mps 713 mmHg 43%
    06:00 +6°C° 0 mm 4 mps 713 mmHg 40%
    07:00 +7°C° 0 mm 4 mps 713 mmHg 37%
    08:00 +9°C° 0 mm 5 mps 713 mmHg 33%
    09:00 +11°C° 0 mm 6 mps 713 mmHg 29%
    10:00 +14°C° 0 mm 7 mps 712 mmHg 25%
    11:00 +17°C° 0 mm 8 mps 712 mmHg 21%
    12:00 +18°C° 0 mm 8 mps 711 mmHg 24%
    13:00 +20°C° 0 mm 8 mps 710 mmHg 27%
    14:00 +20°C° 0 mm 8 mps 710 mmHg 30%
    15:00 +18°C° 0.1 mm 7 mps 709 mmHg 35%
    16:00 +17°C° 0.1 mm 6 mps 709 mmHg 41%
    17:00 +17°C° 0.1 mm 4 mps 709 mmHg 46%
    18:00 +15°C° 0.7 mm 5 mps 709 mmHg 47%
    19:00 +15°C° 0.7 mm 6 mps 710 mmHg 49%
    20:00 +15°C° 0.7 mm 8 mps 711 mmHg 50%
    21:00 +13°C° 0 mm 8 mps 711 mmHg 45%
    22:00 +12°C° 0 mm 8 mps 711 mmHg 39%
    23:00 +11°C° 0 mm 8 mps 711 mmHg 34%

    Tomorrow, 23 October, Monday

    Time Temperature Precipitation Wind Pressure Humidity
    00:00 +10°C° 0 mm 7 mps 712 mmHg 36%
    01:00 +10°C° 0 mm 7 mps 712 mmHg 38%
    02:00 +9°C° 0 mm 7 mps 713 mmHg 40%
    03:00 +9°C° 0 mm 8 mps 713 mmHg 38%
    04:00 +9°C° 0 mm 8 mps 713 mmHg 37%
    05:00 +8°C° 0 mm 9 mps 713 mmHg 35%
    06:00 +8°C° 0 mm 10 mps 714 mmHg 40%
    07:00 +7°C° 0 mm 11 mps 715 mmHg 45%
    08:00 +7°C° 0 mm 12 mps 715 mmHg 51%
    09:00 +8°C° 0 mm 11 mps 716 mmHg 47%
    10:00 +9°C° 0 mm 11 mps 717 mmHg 43%
    11:00 +9°C° 0 mm 10 mps 718 mmHg 40%
    12:00 +11°C° 0 mm 10 mps 719 mmHg 38%
    13:00 +11°C° 0 mm 10 mps 719 mmHg 37%
    14:00 +12°C° 0 mm 10 mps 719 mmHg 36%
    15:00 +11°C° 0 mm 8 mps 720 mmHg 37%
    16:00 +10°C° 0 mm 7 mps 720 mmHg 38%
    17:00 +10°C° 0 mm 6 mps 721 mmHg 39%
    18:00 +9°C° 0 mm 6 mps 721 mmHg 42%
    19:00 +9°C° 0 mm 6 mps 722 mmHg 44%
    20:00 +8°C° 0 mm 6 mps 723 mmHg 46%
    21:00 +7°C° 0 mm 6 mps 723 mmHg 48%
    22:00 +7°C° 0 mm 6 mps 723 mmHg 49%
    23:00 +5°C° 0 mm 6 mps 723 mmHg 51%

    Day after tomorrow, 24 October, Tuesday

    Time Temperature Precipitation Wind Pressure Humidity
    00:00 +4°C° 0 mm 6 mps 723 mmHg 53%
    01:00 +5°C° 0 mm 5 mps 723 mmHg 56%
    02:00 +3°C° 0 mm 5 mps 723 mmHg 59%
    03:00 +3°C° 0 mm 5 mps 724 mmHg 61%
    04:00 +2°C° 0 mm 5 mps 724 mmHg 63%
    05:00 +3°C° 0 mm 4 mps 724 mmHg 65%
    06:00 +4°C° 0 mm 4 mps 724 mmHg 63%
    07:00 +3°C° 0 mm 5 mps 724 mmHg 60%
    08:00 +5°C° 0 mm 5 mps 725 mmHg 57%
    09:00 +7°C° 0 mm 5 mps 724 mmHg 50%
    10:00 +9°C° 0 mm 5 mps 723 mmHg 42%
    11:00 +10°C° 0 mm 5 mps 722 mmHg 35%
    12:00 +13°C° 0 mm 6 mps 721 mmHg 31%
    13:00 +14°C° 0 mm 6 mps 720 mmHg 27%
    14:00 +15°C° 0 mm 7 mps 718 mmHg 24%
    15:00 +15°C° 0 mm 6 mps 717 mmHg 28%
    16:00 +14°C° 0 mm 6 mps 716 mmHg 32%
    17:00 +14°C° 0 mm 5 mps 715 mmHg 36%
    18:00 +14°C° 0 mm 6 mps 715 mmHg 37%
    19:00 +14°C° 0 mm 7 mps 714 mmHg 38%
    20:00 +14°C° 0 mm 7 mps 714 mmHg 39%
    21:00 +13°C° 0 mm 8 mps 714 mmHg 39%
    22:00 +12°C° 0 mm 8 mps 714 mmHg 38%
    23:00 +11°C° 0 mm 9 mps 715 mmHg 38%

    25 October, Wednesday

    Time Temperature Precipitation Wind Pressure Humidity
    00:00 +10°C° 0 mm 8 mps 715 mmHg 39%
    01:00 +9°C° 0 mm 8 mps 715 mmHg 39%
    02:00 +8°C° 0 mm 7 mps 715 mmHg 39%
    03:00 +7°C° 0 mm 6 mps 716 mmHg 42%
    04:00 +5°C° 0 mm 6 mps 716 mmHg 45%
    05:00 +5°C° 0 mm 6 mps 716 mmHg 48%
    06:00 +5°C° 0 mm 6 mps 716 mmHg 49%
    07:00 +5°C° 0 mm 6 mps 716 mmHg 50%
    08:00 +5°C° 0 mm 6 mps 717 mmHg 51%
    09:00 +7°C° 0 mm 5 mps 716 mmHg 49%
    10:00 +8°C° 0 mm 4 mps 716 mmHg 47%
    11:00 +10°C° 0 mm 3 mps 716 mmHg 45%
    12:00 +10°C° 0 mm 3 mps 715 mmHg 42%
    13:00 +12°C° 0 mm 2 mps 714 mmHg 39%
    14:00 +12°C° 0 mm 2 mps 713 mmHg 37%
    15:00 +12°C° 0 mm 2 mps 712 mmHg 38%
    16:00 +10°C° 0 mm 2 mps 711 mmHg 40%
    17:00 +9°C° 0 mm 2 mps 710 mmHg 42%
    18:00 +9°C° 0 mm 3 mps 709 mmHg 41%
    19:00 +8°C° 0 mm 4 mps 707 mmHg 41%
    20:00 +8°C° 0 mm 5 mps 706 mmHg 40%
    21:00 +8°C° 0 mm 5 mps 706 mmHg 41%
    22:00 +9°C° 0 mm 5 mps 705 mmHg 41%
    23:00 +9°C° 0 mm 5 mps 704 mmHg 41%

    26 October, Thursday

    Time Temperature Precipitation Wind Pressure Humidity
    00:00 +9°C° 0 mm 5 mps 704 mmHg 45%
    01:00 +9°C° 0 mm 5 mps 704 mmHg 49%
    02:00 +10°C° 0 mm 4 mps 704 mmHg 53%
    03:00 +9°C° 0.1 mm 6 mps 704 mmHg 59%
    04:00 +9°C° 0.1 mm 8 mps 705 mmHg 64%
    05:00 +8°C° 0.1 mm 9 mps 706 mmHg 70%
    06:00 +7°C° 0 mm 10 mps 706 mmHg 64%
    07:00 +6°C° 0 mm 10 mps 707 mmHg 59%
    08:00 +6°C° 0 mm 10 mps 707 mmHg 53%
    09:00 +6°C° 0.1 mm 10 mps 708 mmHg 57%
    10:00 +4°C° 0.1 mm 11 mps 708 mmHg 60%
    11:00 +4°C° 0.1 mm 11 mps 708 mmHg 63%
    12:00 +4°C° 0.4 mm 11 mps 709 mmHg 65%
    13:00 +3°C° 0.4 mm 11 mps 710 mmHg 68%
    14:00 +3°C° 0.4 mm 12 mps 710 mmHg 70%
    15:00 +2°C° 0.7 mm 12 mps 712 mmHg 72%
    16:00 0°C° 0.7 mm 12 mps 713 mmHg 74%
    17:00 +1°C° 0.7 mm 11 mps 715 mmHg 75%
    18:00 -1°C° 0.1 mm 11 mps 716 mmHg 74%
    19:00 -1°C° 0.1 mm 11 mps 717 mmHg 74%
    20:00 -2°C° 0.1 mm 10 mps 718 mmHg 73%
    21:00 -2°C° 0 mm 10 mps 719 mmHg 73%
    22:00 -3°C° 0 mm 10 mps 720 mmHg 73%
    23:00 -3°C° 0 mm 10 mps 720 mmHg 72%

    27 October, Friday

    Time Temperature Precipitation Wind Pressure Humidity
    00:00 -3°C° 0 mm 9 mps 721 mmHg 73%
    01:00 -4°C° 0 mm 9 mps 721 mmHg 73%
    02:00 -4°C° 0 mm 9 mps 722 mmHg 73%
    03:00 -5°C° 0.1 mm 8 mps 722 mmHg 73%
    04:00 -5°C° 0.1 mm 8 mps 723 mmHg 73%
    05:00 -5°C° 0.1 mm 8 mps 723 mmHg 73%
    06:00 -6°C° 0 mm 8 mps 723 mmHg 73%
    07:00 -6°C° 0 mm 8 mps 724 mmHg 72%
    08:00 -6°C° 0 mm 7 mps 724 mmHg 71%
    09:00 -6°C° 0 mm 7 mps 725 mmHg 69%
    10:00 -4°C° 0 mm 7 mps 725 mmHg 66%
    11:00 -4°C° 0 mm 7 mps 725 mmHg 64%
    12:00 -4°C° 0 mm 7 mps 725 mmHg 62%
    13:00 -3°C° 0 mm 7 mps 724 mmHg 61%
    14:00 -3°C° 0 mm 7 mps 724 mmHg 60%
    15:00 -3°C° 0 mm 6 mps 724 mmHg 61%
    16:00 -4°C° 0 mm 6 mps 725 mmHg 63%
    17:00 -4°C° 0 mm 5 mps 725 mmHg 64%
    18:00 -5°C° 0 mm 5 mps 725 mmHg 67%
    19:00 -4°C° 0 mm 4 mps 725 mmHg 70%
    20:00 -5°C° 0 mm 3 mps 724 mmHg 73%
    21:00 -5°C° 0 mm 3 mps 724 mmHg 76%
    22:00 -6°C° 0 mm 3 mps 724 mmHg 80%
    23:00 -5°C° 0 mm 2 mps 724 mmHg 83%
    Show more